This demonstration page uses our WeatherBlox Daily Observations layout. Learn more.

Left ArrowRight Arrow

Hourly Observations for July 2, 2021

Temp ( °F °C ) Dew Point ( °F °C ) Humidity (%) Winds ( mph kmh ) Pressure ( in mb ) Visibility ( mi km ) Precip ( " mm )
12:51 am 00:51 Clear 82 27.8 60 15.6 47 47 ESE 8 13 29.81 1010 10 16 N/A
1:51 am 01:51 Mostly Clear 81 27.2 60 15.6 49 49 ESE 8 13 29.82 1010 10 16 N/A
2:51 am 02:51 Clear 79 26.1 61 16.1 54 54 SSE 8 13 29.83 1010 10 16 N/A
3:51 am 03:51 Clear 79 26.1 62 16.7 56 56 SE 8 13 29.82 1010 10 16 N/A
4:51 am 04:51 Clear 78 25.6 61 16.1 56 56 SE 7 11 29.84 1010 10 16 N/A
5:51 am 05:51 Sunny 78 25.6 62 16.7 58 58 SSE 6 9 29.84 1010 10 16 N/A
6:51 am 06:51 Sunny 79 26.1 63 17.2 58 58 SSE 8 13 29.85 1011 10 16 N/A
7:51 am 07:51 Sunny 84 28.9 62 16.7 48 48 ESE 9 15 29.86 1011 10 16 N/A
8:51 am 08:51 Sunny 86 30 63 17.2 46 46 SE 8 13 29.86 1011 10 16 N/A
9:51 am 09:51 Sunny 89 31.7 62 16.7 41 41 VRB 3 6 29.85 1011 10 16 N/A
10:51 am 10:51 Mostly Sunny 91 32.8 62 16.7 38 38 VRB 6 9 29.82 1010 10 16 N/A
11:51 am 11:51 Sunny 92 33.3 60 15.6 34 34 VRB 3 6 29.80 1009 10 16 N/A
12:51 pm 12:51 Sunny 94 34.4 59 15 31 31 N N/A 29.77 1008 10 16 N/A
1:51 pm 13:51 Sunny 96 35.6 59 15 29 29 N N/A 29.75 1007 10 16 N/A
2:17 pm 14:17 Mostly Cloudy with Nearby Thunderstorms 98 36.7 60 15.6 28 28 WNW 13 20 29.61 1003 10 16 N/A
2:39 pm 14:39 Cloudy 93 33.9 62 16.7 36 36 ESE 10 17 29.65 1004 10 16 N/A
2:51 pm 14:51 Mostly Cloudy 93 33.9 61 16.1 34 34 SE 12 19 29.75 1007 10 16 N/A
3:51 pm 15:51 Mostly Cloudy with Light Rain 87 30.6 66 18.9 50 50 E 10 17 29.78 1008 10 16 0.00 0.00
4:12 pm 16:12 Mostly Cloudy with Nearby Thunderstorms 87 30.6 64 17.8 46 46 NE 21 33 29.69 1006 10 16 0.00 0.00
4:51 pm 16:51 Mostly Sunny 87 30.6 59 15 39 39 NNE 23 37 29.78 1009 10 16 0.00 0.00
5:00 pm 17:00 Mostly Cloudy with Nearby Thunderstorms 87 30.6 58 14.4 37 37 NNW 15 24 29.72 1007 10 16 N/A
5:09 pm 17:09 Mostly Cloudy 82 27.8 63 17.2 53 53 WNW 13 20 29.74 1007 10 16 N/A
5:51 pm 17:51 Partly Cloudy 78 25.6 64 17.8 62 62 WNW 12 19 29.83 1010 10 16 N/A
6:51 pm 18:51 Partly Cloudy with Light Rain 76 24.4 67 19.4 74 74 NW 12 19 29.84 1010 10 16 0.00 0.00
7:51 pm 19:51 Clear 74 23.3 67 19.4 79 79 NW 14 22 29.85 1011 10 16 0.00 0.00
8:51 pm 20:51 Clear 76 24.4 65 18.3 69 69 NW 7 11 29.87 1012 10 16 N/A
9:51 pm 21:51 Mostly Clear 77 25 65 18.3 66 66 N N/A 29.88 1012 10 16 N/A
10:51 pm 22:51 Clear 77 25 65 18.3 66 66 N N/A 29.88 1012 10 16 N/A
11:51 pm 23:51 Cloudy 76 24.4 66 18.9 72 72 N N/A 29.89 1012 10 16 N/A

Powered by AerisWeather